When you browse on this site, cookies collect data to enhance your experience and personalize the content and advertising you see.
Visit our Privacy Policy to learn more. By continuing to use the site, you agree to this use of cookies and data.
  • în România
  • Lista ţărilor
  • Pe 7 zile
  • Temperatura apei
  • Meteo pe hartă
  • Widget-uri
  • user-avatar
    Intrare

    Meteo pe oră la Siguiri

    Astăzi, 25 August, Duminică

    Timp Temperatura Precipitaţii Vânt Presiune Umiditate
    00:00 +23°C° 0 mm 2 m/s 717 mmHg 91%
    01:00 +23°C° 0 mm 1 m/s 718 mmHg 91%
    02:00 +23°C° 0.1 mm 2 m/s 717 mmHg 91%
    03:00 +23°C° 0.1 mm 2 m/s 717 mmHg 91%
    04:00 +23°C° 0.1 mm 2 m/s 716 mmHg 92%
    05:00 +22°C° 0 mm 3 m/s 717 mmHg 91%
    06:00 +22°C° 0 mm 3 m/s 717 mmHg 91%
    07:00 +22°C° 0 mm 3 m/s 717 mmHg 90%
    08:00 +23°C° 0 mm 4 m/s 718 mmHg 86%
    09:00 +25°C° 0 mm 4 m/s 718 mmHg 81%
    10:00 +26°C° 0 mm 5 m/s 718 mmHg 77%
    11:00 +27°C° 0.7 mm 5 m/s 718 mmHg 74%
    12:00 +28°C° 0.7 mm 5 m/s 718 mmHg 71%
    13:00 +29°C° 0.7 mm 5 m/s 717 mmHg 68%
    14:00 +29°C° 1.6 mm 5 m/s 717 mmHg 70%
    15:00 +29°C° 1.6 mm 5 m/s 716 mmHg 72%
    16:00 +28°C° 1.6 mm 5 m/s 715 mmHg 73%
    17:00 +27°C° 1.9 mm 4 m/s 715 mmHg 78%
    18:00 +26°C° 1.9 mm 4 m/s 716 mmHg 83%
    19:00 +25°C° 1.9 mm 3 m/s 716 mmHg 88%
    20:00 +24°C° 0.4 mm 3 m/s 716 mmHg 88%
    21:00 +24°C° 0.4 mm 3 m/s 717 mmHg 89%
    22:00 +24°C° 0.4 mm 2 m/s 717 mmHg 90%
    23:00 +23°C° 0.1 mm 2 m/s 717 mmHg 90%

    Mâine, 26 August, Luni

    Timp Temperatura Precipitaţii Vânt Presiune Umiditate
    00:00 +23°C° 0.1 mm 2 m/s 717 mmHg 90%
    01:00 +23°C° 0.1 mm 1 m/s 717 mmHg 90%
    02:00 +23°C° 0.1 mm 1 m/s 717 mmHg 90%
    03:00 +23°C° 0.1 mm 1 m/s 716 mmHg 90%
    04:00 +23°C° 0.1 mm 1 m/s 716 mmHg 90%
    05:00 +23°C° 0.1 mm 1 m/s 716 mmHg 90%
    06:00 +23°C° 0.1 mm 2 m/s 717 mmHg 91%
    07:00 +23°C° 0.1 mm 2 m/s 717 mmHg 91%
    08:00 +24°C° 0 mm 2 m/s 717 mmHg 87%
    09:00 +25°C° 0 mm 3 m/s 717 mmHg 83%
    10:00 +26°C° 0 mm 3 m/s 718 mmHg 79%
    11:00 +27°C° 0 mm 3 m/s 717 mmHg 74%
    12:00 +29°C° 0 mm 3 m/s 717 mmHg 69%
    13:00 +30°C° 0 mm 3 m/s 716 mmHg 64%
    14:00 +30°C° 0.5 mm 3 m/s 716 mmHg 64%
    15:00 +30°C° 0.5 mm 3 m/s 715 mmHg 64%
    16:00 +30°C° 0.5 mm 2 m/s 714 mmHg 64%
    17:00 +29°C° 1.5 mm 2 m/s 714 mmHg 71%
    18:00 +27°C° 1.5 mm 2 m/s 715 mmHg 77%
    19:00 +26°C° 1.5 mm 1 m/s 715 mmHg 84%
    20:00 +25°C° 1 mm 2 m/s 715 mmHg 85%
    21:00 +25°C° 1 mm 2 m/s 716 mmHg 87%
    22:00 +24°C° 1 mm 3 m/s 716 mmHg 89%
    23:00 +24°C° 1.2 mm 3 m/s 716 mmHg 90%

    Poimâine, 27 August, Marţi

    Timp Temperatura Precipitaţii Vânt Presiune Umiditate
    00:00 +24°C° 1.2 mm 3 m/s 716 mmHg 90%
    01:00 +22°C° 1.2 mm 3 m/s 716 mmHg 91%
    02:00 +22°C° 1 mm 3 m/s 716 mmHg 92%
    03:00 +22°C° 1 mm 3 m/s 715 mmHg 92%
    04:00 +23°C° 1 mm 2 m/s 715 mmHg 92%
    05:00 +22°C° 0.5 mm 3 m/s 716 mmHg 93%
    06:00 +22°C° 0.5 mm 3 m/s 716 mmHg 93%
    07:00 +22°C° 0.5 mm 3 m/s 716 mmHg 93%
    08:00 +24°C° 0.3 mm 3 m/s 717 mmHg 90%
    09:00 +25°C° 0.3 mm 4 m/s 717 mmHg 87%
    10:00 +26°C° 0.3 mm 5 m/s 718 mmHg 84%
    11:00 +27°C° 0.8 mm 5 m/s 717 mmHg 81%
    12:00 +28°C° 0.8 mm 5 m/s 717 mmHg 78%
    13:00 +29°C° 0.8 mm 5 m/s 716 mmHg 74%
    14:00 +29°C° 1.9 mm 4 m/s 716 mmHg 75%
    15:00 +28°C° 1.9 mm 4 m/s 715 mmHg 76%
    16:00 +28°C° 1.9 mm 4 m/s 714 mmHg 78%
    17:00 +27°C° 2.9 mm 3 m/s 715 mmHg 81%
    18:00 +26°C° 2.9 mm 2 m/s 715 mmHg 85%
    19:00 +25°C° 2.9 mm 1 m/s 715 mmHg 88%
    20:00 +25°C° 1.8 mm 1 m/s 716 mmHg 90%
    21:00 +25°C° 1.8 mm 2 m/s 716 mmHg 91%
    22:00 +24°C° 1.8 mm 2 m/s 717 mmHg 92%
    23:00 +24°C° 0.6 mm 2 m/s 717 mmHg 92%

    28 August, Miercuri

    Timp Temperatura Precipitaţii Vânt Presiune Umiditate
    00:00 +24°C° 0.6 mm 2 m/s 717 mmHg 93%
    01:00 +24°C° 0.6 mm 2 m/s 716 mmHg 94%
    02:00 +24°C° 0.2 mm 2 m/s 716 mmHg 94%
    03:00 +24°C° 0.2 mm 2 m/s 716 mmHg 94%
    04:00 +24°C° 0.2 mm 2 m/s 716 mmHg 94%
    05:00 +23°C° 0.5 mm 2 m/s 716 mmHg 94%
    06:00 +23°C° 0.5 mm 2 m/s 717 mmHg 94%
    07:00 +22°C° 0.5 mm 3 m/s 717 mmHg 94%
    08:00 +24°C° 0.2 mm 3 m/s 717 mmHg 91%
    09:00 +25°C° 0.2 mm 4 m/s 718 mmHg 87%
    10:00 +26°C° 0.2 mm 4 m/s 718 mmHg 83%
    11:00 +26°C° 0.9 mm 4 m/s 718 mmHg 82%
    12:00 +27°C° 0.9 mm 4 m/s 717 mmHg 80%
    13:00 +27°C° 0.9 mm 4 m/s 717 mmHg 78%
    14:00 +27°C° 1 mm 4 m/s 717 mmHg 80%
    15:00 +27°C° 1 mm 3 m/s 716 mmHg 81%
    16:00 +26°C° 1 mm 2 m/s 716 mmHg 83%
    17:00 +26°C° 0.1 mm 2 m/s 716 mmHg 85%
    18:00 +25°C° 0.1 mm 1 m/s 716 mmHg 88%
    19:00 +22°C° 0.1 mm 0 m/s 716 mmHg 90%
    20:00 +22°C° 0 mm 0 m/s 716 mmHg 90%
    21:00 +24°C° 0 mm 1 m/s 716 mmHg 90%
    22:00 +24°C° 0 mm 1 m/s 717 mmHg 91%
    23:00 +24°C° 0 mm 1 m/s 717 mmHg 90%

    29 August, Joi

    Timp Temperatura Precipitaţii Vânt Presiune Umiditate
    00:00 +23°C° 0 mm 1 m/s 717 mmHg 90%
    01:00 +23°C° 0 mm 2 m/s 717 mmHg 90%
    02:00 +23°C° 0 mm 2 m/s 716 mmHg 90%
    03:00 +23°C° 0 mm 2 m/s 716 mmHg 90%
    04:00 +23°C° 0 mm 2 m/s 716 mmHg 90%
    05:00 +23°C° 0 mm 2 m/s 717 mmHg 90%
    06:00 +23°C° 0 mm 2 m/s 717 mmHg 90%
    07:00 +23°C° 0 mm 2 m/s 717 mmHg 89%
    08:00 +25°C° 0 mm 2 m/s 717 mmHg 84%
    09:00 +26°C° 0 mm 2 m/s 718 mmHg 80%
    10:00 +27°C° 0 mm 2 m/s 718 mmHg 75%
    11:00 +29°C° 0 mm 2 m/s 717 mmHg 69%
    12:00 +30°C° 0 mm 3 m/s 717 mmHg 64%
    13:00 +31°C° 0 mm 3 m/s 716 mmHg 58%
    14:00 +31°C° 0.5 mm 3 m/s 716 mmHg 62%
    15:00 +30°C° 0.5 mm 2 m/s 715 mmHg 66%
    16:00 +29°C° 0.5 mm 2 m/s 714 mmHg 70%
    17:00 +28°C° 0.5 mm 2 m/s 715 mmHg 74%
    18:00 +27°C° 0.5 mm 2 m/s 715 mmHg 78%
    19:00 +26°C° 0.5 mm 2 m/s 715 mmHg 81%
    20:00 +26°C° 0.3 mm 2 m/s 715 mmHg 83%
    21:00 +25°C° 0.3 mm 2 m/s 715 mmHg 85%
    22:00 +25°C° 0.3 mm 2 m/s 716 mmHg 87%
    23:00 +24°C° 1.3 mm 2 m/s 716 mmHg 88%

    30 August, Vineri

    Timp Temperatura Precipitaţii Vânt Presiune Umiditate
    00:00 +24°C° 1.3 mm 2 m/s 716 mmHg 90%
    01:00 +24°C° 1.3 mm 2 m/s 715 mmHg 91%
    02:00 +24°C° 0.4 mm 2 m/s 715 mmHg 91%
    03:00 +24°C° 0.4 mm 2 m/s 715 mmHg 91%
    04:00 +23°C° 0.4 mm 2 m/s 715 mmHg 91%
    05:00 +23°C° 0.2 mm 2 m/s 716 mmHg 91%
    06:00 +23°C° 0.2 mm 2 m/s 716 mmHg 92%
    07:00 +23°C° 0.2 mm 2 m/s 716 mmHg 92%
    08:00 +25°C° 0 mm 3 m/s 717 mmHg 86%
    09:00 +27°C° 0 mm 4 m/s 717 mmHg 80%
    10:00 +28°C° 0 mm 4 m/s 717 mmHg 74%
    11:00 +30°C° 0 mm 4 m/s 717 mmHg 70%
    12:00 +32°C° 0 mm 4 m/s 716 mmHg 65%
    13:00 +33°C° 0 mm 3 m/s 715 mmHg 61%
    14:00 +33°C° 0.2 mm 3 m/s 715 mmHg 62%
    15:00 +33°C° 0.2 mm 3 m/s 714 mmHg 63%
    16:00 +33°C° 0.2 mm 3 m/s 714 mmHg 64%
    17:00 +30°C° 1.7 mm 3 m/s 714 mmHg 70%
    18:00 +28°C° 1.7 mm 2 m/s 714 mmHg 76%
    19:00 +27°C° 1.7 mm 2 m/s 714 mmHg 82%
    20:00 +26°C° 1.1 mm 2 m/s 714 mmHg 84%
    21:00 +26°C° 1.1 mm 2 m/s 715 mmHg 85%
    22:00 +25°C° 1.1 mm 3 m/s 715 mmHg 86%
    23:00 +25°C° 0.3 mm 3 m/s 715 mmHg 87%
    Arată mai mult